Home > Weather > Lubbock > Past weeks

Flag for USA Past Weather in Lubbock, Texas, USA — Yesterday and Last 2 Weeks

Now
69 °F

Thunderstorms. Overcast.


Feels Like: 69 °F
Forecast: 65 / 85 °F
Wind: 9 mph from South

Location: Lubbock International Airport

Current Time: Aug 25, 2016 at 3:17:15 AM

Latest Report: Aug 25, 2016 at 2:00 AM


Visibility: 8 mi

Pressure: 30.13 "Hg (26.90 "Hg at 976m altitude)

Humidity: 87%

Dew Point: 65 °F

Location of LubbockLocation

Past Weather in Lubbock — Graph

°F

Lubbock Temperature Yesterday

Maximum temperature yesterday: 83 °F (at 3:53 PM)
Minimum temperature yesterday: 65 °F (at 4:53 AM)
Average temperature yesterday: 73 °F

High & Low Weather Summary for the Past Weeks

 TemperatureHumidityPressure
High96 °F (Aug 11, 2:53 PM)96% (Aug 20, 4:53 AM)30.14 "Hg (Aug 20, 4:53 AM)
Low59 °F (Aug 15, 5:53 AM)21% (Aug 16, 4:53 PM)29.70 "Hg (Aug 19, 4:53 PM)
Average76 °F62%29.94 "Hg
* Reported Aug 10 2:53 AM — Aug 25 2:00 AM, Lubbock, Weather by CustomWeather, © 2016

Note: Actual official high and low records may vary slightly from our data, if they occured in-between our weather recording intervals... More about our weather records

Advertising

Lubbock Weather History for the Previous 24 Hours

Scroll right to see more
 ConditionsComfort  
Time TempWeatherWind HumidityBarometerVisibility
2:00 AM
Thu, Aug 25
69 °FThunderstorms. Overcast.9 mph87%30.13 "Hg8 mi
12:53 AM70 °FMostly cloudy.5 mph81%29.98 "Hg10 mi
11:53 PM
Wed, Aug 24
68 °FMostly cloudy.No wind87%29.98 "Hg10 mi
10:53 PM68 °FPassing clouds.9 mph84%29.97 "Hg10 mi
9:53 PM69 °FPassing clouds.9 mph81%29.96 "Hg10 mi
8:53 PM71 °FScattered clouds.7 mph73%29.96 "Hg10 mi
7:53 PM76 °FLight rain. Partly sunny.10 mph58%29.94 "Hg10 mi
6:53 PM77 °FBroken clouds.13 mph54%29.93 "Hg10 mi
5:53 PM80 °FPartly sunny.18 mph47%29.94 "Hg10 mi
4:53 PM81 °FPartly sunny.17 mph47%29.96 "Hg10 mi
3:53 PM83 °FScattered clouds.14 mph46%29.96 "Hg10 mi
2:53 PM82 °FBroken clouds.12 mph44%29.97 "Hg10 mi
1:53 PM82 °FSunny.15 mph46%29.96 "Hg10 mi
12:53 PM78 °FBroken clouds.12 mph56%30.00 "Hg10 mi
11:53 AM78 °FPartly sunny.10 mph52%29.98 "Hg10 mi
10:53 AM73 °FBroken clouds.14 mph66%29.98 "Hg10 mi
9:53 AM69 °FBroken clouds.6 mph76%29.97 "Hg10 mi
8:53 AM65 °FLight rain. Mostly cloudy.14 mph87%30.00 "Hg9 mi
7:53 AM66 °FLight rain. Partly cloudy.15 mph87%30.01 "Hg10 mi
6:53 AM66 °FPartly cloudy.6 mph90%29.97 "Hg10 mi
5:53 AM65 °FMostly cloudy.7 mph91%29.95 "Hg10 mi
4:53 AM65 °FRain. Fog.7 mph87%29.96 "Hg6 mi
3:53 AM70 °FMostly cloudy.21 mph68%29.96 "Hg10 mi
Weather by CustomWeather, © 2016

See weather overviewHow to use our weather pages